• en France
  • Liste des pays
  • À 7 jours
  • Température de l'eau
  • Carte satellitaire
  • Carte météo
  • Widgets météo
  • user-avatar
    Se connecter

    Météo par heure à Omagh

    Ce jour, 20 Novembre, Lundi

    Heure Température Précipitation Vent Pression Humidité
    00:00 +9°C° 0,4 mm 5 m/s 751 mmHg 95%
    01:00 +10°C° 0,2 mm 5 m/s 750 mmHg 95%
    02:00 +10°C° 0,2 mm 5 m/s 750 mmHg 94%
    03:00 +12°C° 0,2 mm 4 m/s 749 mmHg 94%
    04:00 +12°C° 0,1 mm 5 m/s 749 mmHg 93%
    05:00 +12°C° 0,1 mm 5 m/s 749 mmHg 93%
    06:00 +10°C° 0,1 mm 5 m/s 749 mmHg 92%
    07:00 +10°C° 0,1 mm 5 m/s 749 mmHg 92%
    08:00 +12°C° 0,1 mm 5 m/s 749 mmHg 91%
    09:00 +12°C° 0,1 mm 5 m/s 749 mmHg 91%
    10:00 +12°C° 0,2 mm 5 m/s 749 mmHg 90%
    11:00 +12°C° 0,2 mm 5 m/s 749 mmHg 90%
    12:00 +12°C° 0,2 mm 5 m/s 749 mmHg 89%
    13:00 +12°C° 0,1 mm 5 m/s 749 mmHg 89%
    14:00 +12°C° 0,1 mm 4 m/s 749 mmHg 89%
    15:00 +12°C° 0,1 mm 4 m/s 749 mmHg 89%
    16:00 +11°C° 0 mm 3 m/s 749 mmHg 92%
    17:00 +11°C° 0 mm 3 m/s 749 mmHg 94%
    18:00 +10°C° 0 mm 2 m/s 749 mmHg 96%
    19:00 +10°C° 0,8 mm 2 m/s 749 mmHg 97%
    20:00 +10°C° 0,8 mm 2 m/s 749 mmHg 97%
    21:00 +10°C° 0,8 mm 2 m/s 749 mmHg 98%
    22:00 +12°C° 0,4 mm 2 m/s 749 mmHg 98%
    23:00 +12°C° 0,4 mm 2 m/s 749 mmHg 97%

    Demain, 21 Novembre, Mardi

    Heure Température Précipitation Vent Pression Humidité
    00:00 +12°C° 0,4 mm 2 m/s 749 mmHg 97%
    01:00 +12°C° 0,3 mm 3 m/s 748 mmHg 96%
    02:00 +12°C° 0,3 mm 4 m/s 748 mmHg 96%
    03:00 +13°C° 0,3 mm 4 m/s 747 mmHg 95%
    04:00 +13°C° 0,2 mm 4 m/s 747 mmHg 95%
    05:00 +12°C° 0,2 mm 4 m/s 746 mmHg 95%
    06:00 +12°C° 0,2 mm 3 m/s 746 mmHg 95%
    07:00 +12°C° 0,1 mm 4 m/s 745 mmHg 95%
    08:00 +12°C° 0,1 mm 4 m/s 744 mmHg 94%
    09:00 +11°C° 0,1 mm 4 m/s 744 mmHg 93%
    10:00 +11°C° 0,5 mm 4 m/s 743 mmHg 93%
    11:00 +10°C° 0,5 mm 5 m/s 742 mmHg 93%
    12:00 +10°C° 0,5 mm 5 m/s 741 mmHg 92%
    13:00 +12°C° 0,4 mm 5 m/s 740 mmHg 92%
    14:00 +13°C° 0,4 mm 5 m/s 740 mmHg 92%
    15:00 +14°C° 0,4 mm 5 m/s 739 mmHg 92%
    16:00 +13°C° 0,1 mm 5 m/s 738 mmHg 92%
    17:00 +13°C° 0,1 mm 5 m/s 738 mmHg 92%
    18:00 +13°C° 0,1 mm 5 m/s 738 mmHg 92%
    19:00 +12°C° 0,1 mm 5 m/s 738 mmHg 91%
    20:00 +10°C° 0,1 mm 5 m/s 738 mmHg 89%
    21:00 +10°C° 0,1 mm 5 m/s 737 mmHg 88%
    22:00 +9°C° 0,1 mm 5 m/s 737 mmHg 89%
    23:00 +9°C° 0,1 mm 5 m/s 737 mmHg 91%

    Après-demain, 22 Novembre, Mercredi

    Heure Température Précipitation Vent Pression Humidité
    00:00 +10°C° 0,1 mm 4 m/s 737 mmHg 92%
    01:00 +10°C° 0 mm 4 m/s 737 mmHg 92%
    02:00 +10°C° 0 mm 3 m/s 736 mmHg 93%
    03:00 +10°C° 0 mm 3 m/s 736 mmHg 94%
    04:00 +9°C° 0,2 mm 2 m/s 735 mmHg 95%
    05:00 +9°C° 0,2 mm 2 m/s 735 mmHg 95%
    06:00 +10°C° 0,2 mm 1 m/s 734 mmHg 96%
    07:00 +10°C° 0,5 mm 1 m/s 734 mmHg 96%
    08:00 +10°C° 0,5 mm 1 m/s 733 mmHg 96%
    09:00 +10°C° 0,5 mm 1 m/s 732 mmHg 97%
    10:00 +10°C° 0,8 mm 1 m/s 732 mmHg 96%
    11:00 +10°C° 0,8 mm 1 m/s 731 mmHg 96%
    12:00 +10°C° 0,8 mm 1 m/s 731 mmHg 96%
    13:00 +10°C° 0,6 mm 1 m/s 730 mmHg 96%
    14:00 +10°C° 0,6 mm 1 m/s 730 mmHg 96%
    15:00 +10°C° 0,6 mm 1 m/s 729 mmHg 96%
    16:00 +9°C° 0,8 mm 1 m/s 729 mmHg 96%
    17:00 +9°C° 0,8 mm 1 m/s 729 mmHg 96%
    18:00 +8°C° 0,8 mm 2 m/s 728 mmHg 97%
    19:00 +9°C° 0,2 mm 1 m/s 729 mmHg 97%
    20:00 +9°C° 0,2 mm 1 m/s 729 mmHg 97%
    21:00 +9°C° 0,2 mm 1 m/s 729 mmHg 97%
    22:00 +9°C° 0 mm 1 m/s 729 mmHg 96%
    23:00 +8°C° 0 mm 2 m/s 730 mmHg 96%

    23 Novembre, Jeudi

    Heure Température Précipitation Vent Pression Humidité
    00:00 +8°C° 0 mm 2 m/s 730 mmHg 95%
    01:00 +8°C° 0,1 mm 3 m/s 730 mmHg 94%
    02:00 +7°C° 0,1 mm 4 m/s 731 mmHg 93%
    03:00 +8°C° 0,1 mm 4 m/s 731 mmHg 92%
    04:00 +7°C° 0 mm 4 m/s 732 mmHg 90%
    05:00 +7°C° 0 mm 5 m/s 732 mmHg 89%
    06:00 +7°C° 0 mm 5 m/s 733 mmHg 87%
    07:00 +7°C° 0,1 mm 4 m/s 733 mmHg 89%
    08:00 +7°C° 0,1 mm 4 m/s 733 mmHg 90%
    09:00 +7°C° 0,1 mm 4 m/s 733 mmHg 91%
    10:00 +8°C° 0,2 mm 5 m/s 733 mmHg 88%
    11:00 +9°C° 0,2 mm 6 m/s 733 mmHg 85%
    12:00 +10°C° 0,2 mm 7 m/s 733 mmHg 82%
    13:00 +9°C° 0,1 mm 7 m/s 734 mmHg 81%
    14:00 +9°C° 0,1 mm 6 m/s 734 mmHg 80%
    15:00 +8°C° 0,1 mm 6 m/s 735 mmHg 79%
    16:00 +8°C° 0,1 mm 6 m/s 735 mmHg 80%
    17:00 +7°C° 0,1 mm 6 m/s 735 mmHg 82%
    18:00 +7°C° 0,1 mm 6 m/s 735 mmHg 83%
    19:00 +7°C° 0,1 mm 6 m/s 735 mmHg 81%
    20:00 +6°C° 0,1 mm 7 m/s 734 mmHg 79%
    21:00 +5°C° 0,1 mm 7 m/s 734 mmHg 77%
    22:00 +5°C° 0 mm 8 m/s 734 mmHg 76%
    23:00 +5°C° 0 mm 8 m/s 735 mmHg 74%

    24 Novembre, Vendredi

    Heure Température Précipitation Vent Pression Humidité
    00:00 +5°C° 0 mm 9 m/s 735 mmHg 73%
    01:00 +5°C° 0 mm 8 m/s 735 mmHg 72%
    02:00 +5°C° 0 mm 8 m/s 736 mmHg 72%
    03:00 +5°C° 0 mm 8 m/s 736 mmHg 72%
    04:00 +5°C° 0 mm 7 m/s 737 mmHg 73%
    05:00 +5°C° 0 mm 7 m/s 738 mmHg 74%
    06:00 +4°C° 0 mm 6 m/s 738 mmHg 76%
    07:00 +4°C° 0 mm 6 m/s 739 mmHg 78%
    08:00 +5°C° 0 mm 5 m/s 740 mmHg 79%
    09:00 +4°C° 0 mm 4 m/s 741 mmHg 81%
    10:00 +5°C° 0 mm 4 m/s 742 mmHg 78%
    11:00 +5°C° 0 mm 4 m/s 743 mmHg 75%
    12:00 +6°C° 0 mm 4 m/s 743 mmHg 73%
    13:00 +6°C° 0 mm 4 m/s 744 mmHg 73%
    14:00 +5°C° 0 mm 3 m/s 744 mmHg 74%
    15:00 +5°C° 0 mm 3 m/s 744 mmHg 75%
    16:00 +5°C° 0 mm 2 m/s 745 mmHg 78%
    17:00 +4°C° 0 mm 2 m/s 745 mmHg 80%
    18:00 +3°C° 0 mm 2 m/s 745 mmHg 83%
    19:00 +3°C° 0 mm 2 m/s 746 mmHg 82%
    20:00 +3°C° 0 mm 1 m/s 746 mmHg 82%
    21:00 +3°C° 0 mm 1 m/s 746 mmHg 82%
    22:00 +3°C° 0 mm 1 m/s 746 mmHg 81%
    23:00 +3°C° 0 mm 1 m/s 746 mmHg 81%

    25 Novembre, Samedi

    Heure Température Précipitation Vent Pression Humidité
    00:00 +3°C° 0 mm 1 m/s 746 mmHg 80%
    01:00 +3°C° 0 mm 1 m/s 746 mmHg 80%
    02:00 +3°C° 0 mm 1 m/s 746 mmHg 80%
    03:00 +3°C° 0 mm 1 m/s 746 mmHg 80%
    04:00 +2°C° 0 mm 2 m/s 746 mmHg 79%
    05:00 +2°C° 0 mm 2 m/s 746 mmHg 78%
    06:00 +2°C° 0 mm 2 m/s 745 mmHg 77%
    07:00 +2°C° 0 mm 2 m/s 746 mmHg 78%
    08:00 +2°C° 0 mm 2 m/s 746 mmHg 78%
    09:00 +2°C° 0 mm 2 m/s 747 mmHg 78%
    10:00 +4°C° 0 mm 1 m/s 747 mmHg 75%
    11:00 +5°C° 0 mm 1 m/s 748 mmHg 72%
    12:00 +6°C° 0 mm 1 m/s 748 mmHg 69%
    13:00 +6°C° 0 mm 1 m/s 748 mmHg 72%
    14:00 +6°C° 0 mm 1 m/s 748 mmHg 74%
    15:00 +5°C° 0 mm 1 m/s 748 mmHg 76%
    16:00 +5°C° 0 mm 1 m/s 748 mmHg 80%
    17:00 +3°C° 0 mm 2 m/s 748 mmHg 83%
    18:00 +2°C° 0 mm 2 m/s 749 mmHg 86%
    19:00 +2°C° 0 mm 3 m/s 748 mmHg 82%
    20:00 +1°C° 0 mm 4 m/s 748 mmHg 79%
    21:00 +2°C° 0 mm 5 m/s 747 mmHg 75%
    22:00 +2°C° 0 mm 5 m/s 747 mmHg 76%
    23:00 +2°C° 0 mm 6 m/s 746 mmHg 78%
    Voir plus